Tracking 25723 objects as of 27-Jun-2022
HD Live streaming from Space Station
objects crossing your sky now

GALAXY 9

Track GALAXY 9 now!
GALAXY 9 is classified as:


NORAD ID: 23877
Int'l Code: 1996-033A
Perigee: 35,957.2 km
Apogee: 36,041.2 km
Inclination: 9.7 °
Period: 1,446.6 minutes
Semi major axis: 42370 km
RCS: 8.797 m2 (large)
Launch date: May 24, 1996
Source: United States (US)
Launch site: AIR FORCE EASTERN TEST RANGE (AFETR)

Voice and vision communication; 24 C-band; North America, Caribbean.
aabbcc
Your satellite tracking list
Your tracking list is empty




NASA's NSSDC Master Catalog

Two Line Element Set (TLE):
1 23877U 96033A   22177.44530019 -.00000012  00000-0  00000-0 0  9997
2 23877   9.7124  42.3253 0009912  97.7370 126.8831  0.99543417 31909
Source of the keplerian elements: AFSPC